Weather History for Monroe, WI

Change the Weather History Date:

Wednesday, September 3, 2014

  Actual Average Record
Temperature  
Mean Temperature 70 °F -  
Max Temperature 80 °F 0 °F 89 °F (2012)
Min Temperature 59 °F - 48 °F (1997)
Cooling Degree Days 4    
Growing Degree Days 20 (Base 50)    
Moisture  
Dew Point 61 °F    
Average Humidity 73    
Maximum Humidity 94    
Minimum Humidity 57    
Precipitation  
Precipitation 0.00 in - - ()
Sea Level Pressure  
Sea Level Pressure 29.97 in    
Wind  
Wind Speed 8 mph (SSW)    
Max Wind Speed 17 mph    
Max Gust Speed 23 mph    
Visibility 10 miles    
Events      
Averages and records for this station are not official NWS values.
T = Trace of Precipitation, MM = Missing Value Source: NWS Daily Summary

Daily Weather History Graph

Daily Weather History Graph

Search for Another Location

Airport:

Trip Planner

Search our weather history database for the weather conditions in past years. The results will help you decide how hot, cold, wet, or windy it might be!

Date:

Astronomy

Sep. 03, 2014 Rise Set
Actual Time 6:25 AM CDT 7:29 PM CDT
Civil Twilight 5:56 AM CDT 7:58 PM CDT
Nautical Twilight 5:21 AM CDT 8:32 PM CDT
Astronomical Twilight 4:45 AM CDT 9:08 PM CDT
Moon 3:15 PM CDT (9/3) 12:15 AM CDT (9/3)
Length of Visible Light 14h 01m
Length of Day
13h 03m
Waxing Gibbous, 64% of the Moon is Illuminated
Sep 3
Waxing Gibbous
Sep 8
Full
Sep 15
Last Quarter
Sep 24
New
Oct 1
First Quarter

Hourly Weather History & Observations

Time (CDT) Temp. Heat Index Dew Point Humidity Pressure Visibility Wind Dir Wind Speed Gust Speed Precip Events Conditions
12:15 AM 62.6 °F - 57.2 °F 82% 29.98 in 10.0 mi SW 5.8 mph - N/A   Clear
12:35 AM 62.6 °F - 57.2 °F 82% 29.99 in 10.0 mi SW 5.8 mph - N/A   Clear
12:55 AM 62.6 °F - 57.2 °F 82% 29.99 in 10.0 mi SW 5.8 mph - N/A   Clear
1:15 AM 60.8 °F - 57.2 °F 88% 29.99 in 10.0 mi SSW 6.9 mph - N/A   Clear
1:35 AM 60.8 °F - 57.2 °F 88% 29.99 in 10.0 mi SW 6.9 mph - N/A   Clear
1:55 AM 60.8 °F - 57.2 °F 88% 29.99 in 10.0 mi SW 8.1 mph - N/A   Clear
2:15 AM 60.8 °F - 57.2 °F 88% 29.99 in 10.0 mi SW 6.9 mph - N/A   Clear
2:35 AM 60.8 °F - 55.4 °F 82% 29.99 in 10.0 mi SW 6.9 mph - N/A   Clear
2:55 AM 60.8 °F - 55.4 °F 82% 29.99 in 10.0 mi SW 6.9 mph - N/A   Clear
3:15 AM 60.8 °F - 55.4 °F 82% 29.99 in 10.0 mi SW 6.9 mph - N/A   Clear
3:35 AM 62.6 °F - 55.4 °F 77% 29.99 in 10.0 mi WSW 6.9 mph - N/A   Clear
3:55 AM 62.6 °F - 55.4 °F 77% 29.99 in 10.0 mi SW 6.9 mph - N/A   Clear
4:15 AM 62.6 °F - 55.4 °F 77% 29.99 in 10.0 mi SW 6.9 mph - N/A   Clear
4:35 AM 62.6 °F - 55.4 °F 77% 29.99 in 10.0 mi WSW 6.9 mph - N/A   Clear
4:55 AM 62.6 °F - 55.4 °F 77% 29.99 in 10.0 mi WSW 8.1 mph - N/A   Clear
5:15 AM 62.6 °F - 55.4 °F 77% 29.99 in 10.0 mi WSW 9.2 mph - N/A   Clear
5:35 AM 64.4 °F - 55.4 °F 73% 29.99 in 10.0 mi West 8.1 mph - N/A   Clear
5:55 AM 64.4 °F - 55.4 °F 73% 29.99 in 10.0 mi West 6.9 mph - N/A   Clear
6:15 AM 60.8 °F - 55.4 °F 82% 30.00 in 10.0 mi WSW 5.8 mph - N/A   Clear
6:35 AM 59.0 °F - 55.4 °F 88% 30.00 in 10.0 mi WSW 6.9 mph - N/A   Clear
6:55 AM 59.0 °F - 55.4 °F 88% 30.00 in 10.0 mi SW 5.8 mph - N/A   Clear
7:15 AM 59.0 °F - 55.4 °F 88% 30.00 in 10.0 mi SW 4.6 mph - N/A   Clear
7:35 AM 59.0 °F - 57.2 °F 94% 30.01 in 10.0 mi SSW 5.8 mph - N/A   Clear
7:55 AM 62.6 °F - 59.0 °F 88% 30.02 in 10.0 mi SSW 4.6 mph - N/A   Clear
8:15 AM 64.4 °F - 59.0 °F 83% 30.01 in 10.0 mi South 3.5 mph - N/A   Clear
8:35 AM 64.4 °F - 59.0 °F 83% 30.01 in 10.0 mi South 3.5 mph - N/A   Clear
8:55 AM 68.0 °F - 60.8 °F 78% 30.01 in 10.0 mi South 6.9 mph - N/A   Clear
9:15 AM 68.0 °F - 60.8 °F 78% 30.01 in 10.0 mi South 4.6 mph - N/A   Clear
9:35 AM 69.8 °F - 60.8 °F 73% 30.01 in 10.0 mi SSW 4.6 mph - N/A   Clear
9:55 AM 71.6 °F - 60.8 °F 69% 30.02 in 10.0 mi South 8.1 mph - N/A   Clear
10:15 AM 71.6 °F - 60.8 °F 69% 30.03 in 10.0 mi South 9.2 mph - N/A   Clear
10:35 AM 73.4 °F - 60.8 °F 65% 30.04 in 10.0 mi SSW 10.4 mph - N/A   Clear
10:55 AM 73.4 °F - 60.8 °F 65% 30.04 in 10.0 mi SSW 12.7 mph - N/A   Clear
11:15 AM 73.4 °F - 60.8 °F 65% 30.03 in 10.0 mi South 8.1 mph - N/A   Clear
11:35 AM 75.2 °F - 60.8 °F 61% 30.03 in 10.0 mi SSW 11.5 mph 17.3 mph N/A   Clear
11:55 AM 75.2 °F - 60.8 °F 61% 30.03 in 10.0 mi South 15.0 mph - N/A   Scattered Clouds
12:15 PM 77.0 °F - 60.8 °F 57% 30.02 in 10.0 mi South 11.5 mph 18.4 mph N/A   Scattered Clouds
12:35 PM 77.0 °F - 60.8 °F 57% 30.01 in 10.0 mi SW 10.4 mph - N/A   Clear
12:55 PM 77.0 °F - 62.6 °F 61% 30.00 in 10.0 mi SSW 9.2 mph - N/A   Clear
1:15 PM 78.8 °F - 62.6 °F 57% 30.00 in 10.0 mi SSW 15.0 mph 20.7 mph N/A   Clear
1:35 PM 78.8 °F - 62.6 °F 57% 29.98 in 10.0 mi SSW 11.5 mph - N/A   Scattered Clouds
1:55 PM 78.8 °F - 62.6 °F 57% 29.98 in 10.0 mi South 10.4 mph - N/A   Clear
2:15 PM 78.8 °F - 64.4 °F 61% 29.97 in 10.0 mi South 10.4 mph 17.3 mph N/A   Scattered Clouds
2:35 PM 80.6 °F 82.3 °F 64.4 °F 58% 29.97 in 10.0 mi SSW 10.4 mph - N/A   Clear
2:55 PM 80.6 °F 82.3 °F 64.4 °F 58% 29.96 in 10.0 mi SSW 10.4 mph - N/A   Scattered Clouds
3:15 PM 80.6 °F 82.3 °F 64.4 °F 58% 29.95 in 10.0 mi South 11.5 mph - N/A   Clear
3:30 PM 80.6 °F 82.3 °F 64.4 °F 58% 29.94 in 10.0 mi South 12.7 mph 17.3 mph N/A   Clear
3:55 PM 80.6 °F 82.3 °F 64.4 °F 58% 29.93 in 10.0 mi South 10.4 mph 17.3 mph N/A   Clear
4:15 PM 80.6 °F 82.3 °F 64.4 °F 58% 29.93 in 10.0 mi South 12.7 mph 19.6 mph N/A   Clear
4:35 PM 80.6 °F 82.3 °F 64.4 °F 58% 29.92 in 10.0 mi South 15.0 mph - N/A   Clear
4:55 PM 80.6 °F 82.3 °F 64.4 °F 58% 29.92 in 10.0 mi South 12.7 mph - N/A   Clear
5:15 PM 80.6 °F 82.3 °F 64.4 °F 58% 29.91 in 10.0 mi SSE 11.5 mph 16.1 mph N/A   Clear
5:35 PM 80.6 °F 82.3 °F 64.4 °F 58% 29.90 in 10.0 mi SSE 13.8 mph - N/A   Clear
5:55 PM 80.6 °F 82.3 °F 64.4 °F 58% 29.90 in 10.0 mi SSE 11.5 mph - N/A   Clear
6:15 PM 78.8 °F - 64.4 °F 61% 29.91 in 10.0 mi South 16.1 mph 20.7 mph N/A   Clear
6:55 PM 77.0 °F - 64.4 °F 65% 29.91 in 10.0 mi South 10.4 mph - N/A   Clear
7:15 PM 75.2 °F - 64.4 °F 69% 29.91 in 10.0 mi SSE 10.4 mph - N/A   Clear
7:35 PM 73.4 °F - 64.4 °F 73% 29.91 in 10.0 mi SSE 8.1 mph - N/A   Clear
7:55 PM 71.6 °F - 66.2 °F 83% 29.91 in 10.0 mi SSE 9.2 mph - N/A   Clear
8:15 PM 71.6 °F - 64.4 °F 78% 29.91 in 10.0 mi SSE 12.7 mph - N/A   Clear
8:35 PM 71.6 °F - 64.4 °F 78% 29.91 in 10.0 mi SSE 13.8 mph - N/A   Clear
8:55 PM 71.6 °F - 64.4 °F 78% 29.90 in 10.0 mi South 16.1 mph 20.7 mph N/A   Clear
9:15 PM 71.6 °F - 64.4 °F 78% 29.90 in 10.0 mi South 16.1 mph - N/A   Clear
9:35 PM 71.6 °F - 64.4 °F 78% 29.89 in 10.0 mi South 17.3 mph - N/A   Clear
9:55 PM 71.6 °F - 64.4 °F 78% 29.89 in 10.0 mi South 17.3 mph 23.0 mph N/A   Clear
10:15 PM 69.8 °F - 64.4 °F 83% 29.89 in 10.0 mi SSE 17.3 mph - N/A   Clear
10:55 PM 69.8 °F - 64.4 °F 83% 29.90 in 10.0 mi South 15.0 mph 18.4 mph N/A   Clear
11:15 PM 69.8 °F - 64.4 °F 83% 29.90 in 10.0 mi South 13.8 mph - N/A   Clear
11:35 PM 69.8 °F - 64.4 °F 83% 29.89 in 10.0 mi South 15.0 mph 21.9 mph N/A   Clear
11:55 PM 69.8 °F - 64.4 °F 83% 29.90 in 10.0 mi South 15.0 mph 20.7 mph N/A   Clear